Weather History for Olathe, KS

Change the Weather History Date:

Monday, March 18, 2013

  Actual Average Record
Temperature  
Mean Temperature 42 °F 46 °F  
Max Temperature 53 °F 56 °F 74 °F (1978)
Min Temperature 31 °F 35 °F 11 °F (1965)
Degree Days  
Heating Degree Days 23 19  
Month to date heating degree days 470 404  
Since 1 July heating degree days 4123 4297  
Cooling Degree Days 0 0  
Month to date cooling degree days 0 0  
Year to date cooling degree days 1 0  
Moisture  
Dew Point 29 °F    
Average Humidity 64    
Maximum Humidity 100    
Minimum Humidity 28    
Precipitation  
Precipitation 0.01 in 0.09 in 1.81 in (1987)
Month to date precipitation 0.72 1.59  
Year to date precipitation 4.63 4.28  
Sea Level Pressure  
Sea Level Pressure 29.86 in    
Wind  
Wind Speed 10 mph (NW)    
Max Wind Speed 23 mph    
Max Gust Speed 32 mph    
Visibility 6 miles    
Events Rain    
T = Trace of Precipitation, MM = Missing Value Source: NWS Daily Summary

Daily Weather History Graph

Daily Weather History Graph

Search for Another Location

Airport:

Trip Planner

Search our weather history database for the weather conditions in past years. The results will help you decide how hot, cold, wet, or windy it might be!

Date:

Astronomy

Mar. 18, 2013 Rise Set
Actual Time 7:25 AM CDT 7:29 PM CDT
Civil Twilight 6:58 AM CDT 7:55 PM CDT
Nautical Twilight 6:27 AM CDT 8:26 PM CDT
Astronomical Twilight 5:56 AM CDT 8:58 PM CDT
Moon 11:28 AM CDT (3/18) 1:26 AM CDT (3/18)
Length of Visible Light 12h 57m
Length of Day
12h 04m
Waxing Crescent, 41% of the Moon is Illuminated
Mar 18
Waxing Crescent
Mar 19
First Quarter
Mar 27
Full
Apr 2
Last Quarter
Apr 10
New

Hourly Weather History & Observations

Time (CDT) Temp. Windchill Dew Point Humidity Pressure Visibility Wind Dir Wind Speed Gust Speed Precip Events Conditions
12:53 AM 33.1 °F 28.7 °F 33.1 °F 100% 29.77 in 3.0 mi NE 4.6 mph - N/A   Overcast
1:53 AM 33.1 °F 27.7 °F 33.1 °F 100% 29.77 in 4.0 mi ENE 5.8 mph - N/A   Overcast
2:53 AM 34.0 °F - 34.0 °F 100% 29.78 in 3.0 mi Calm Calm - N/A   Overcast
3:24 AM 33.8 °F 30.8 °F 33.8 °F 100% 29.77 in 2.5 mi NW 3.5 mph - N/A   Overcast
3:40 AM 33.8 °F 30.8 °F 33.8 °F 100% 29.76 in 1.8 mi WNW 3.5 mph - N/A   Overcast
3:53 AM 33.1 °F 28.7 °F 33.1 °F 100% 29.78 in 1.5 mi NW 4.6 mph - N/A   Overcast
4:02 AM 33.8 °F 29.6 °F 33.8 °F 100% 29.75 in 1.5 mi NW 4.6 mph - N/A   Overcast
4:17 AM 33.8 °F 28.6 °F 33.8 °F 100% 29.74 in 1.2 mi NNW 5.8 mph - N/A   Overcast
4:53 AM 33.1 °F 28.7 °F 33.1 °F 100% 29.76 in 1.8 mi NW 4.6 mph - N/A   Overcast
5:33 AM 33.8 °F 29.6 °F 33.8 °F 100% 29.74 in 2.0 mi NNW 4.6 mph - 0.01 in Rain Light Rain
5:50 AM 33.8 °F 24.8 °F 33.8 °F 100% 29.77 in 3.0 mi NNW 12.7 mph - 0.01 in Rain Light Rain
5:53 AM 34.0 °F 27.2 °F 34.0 °F 100% 29.80 in 3.0 mi NW 8.1 mph - 0.01 in Rain Light Rain
6:14 AM 33.8 °F 25.8 °F 33.8 °F 100% 29.77 in 3.0 mi NW 10.4 mph - 0.00 in   Overcast
6:53 AM 34.0 °F 27.2 °F 34.0 °F 100% 29.81 in 5.0 mi NW 8.1 mph - 0.00 in   Overcast
7:48 AM 33.8 °F 27.7 °F 33.8 °F 100% 29.80 in 5.0 mi WNW 6.9 mph - N/A   Overcast
7:53 AM 34.0 °F 28.0 °F 33.1 °F 96% 29.83 in 5.0 mi WNW 6.9 mph - N/A   Overcast
8:53 AM 35.1 °F 28.6 °F 34.0 °F 96% 29.86 in 5.0 mi WNW 8.1 mph - N/A   Overcast
9:24 AM 35.6 °F 29.2 °F 33.8 °F 93% 29.84 in 5.0 mi WNW 8.1 mph - N/A   Overcast
9:53 AM 37.9 °F 29.6 °F 35.1 °F 89% 29.86 in 7.0 mi NW 13.8 mph - N/A   Mostly Cloudy
10:04 AM 39.2 °F 32.0 °F 35.6 °F 87% 29.85 in 8.0 mi NW 11.5 mph 20.7 mph N/A   Overcast
10:45 AM 42.8 °F 35.1 °F 33.8 °F 70% 29.86 in 10.0 mi NW 16.1 mph 23.0 mph N/A   Scattered Clouds
10:53 AM 43.0 °F 35.1 °F 34.0 °F 71% 29.88 in 10.0 mi NW 17.3 mph - N/A   Partly Cloudy
11:53 AM 46.0 °F 39.6 °F 28.9 °F 51% 29.90 in 10.0 mi NW 15.0 mph 23.0 mph N/A   Clear
12:53 PM 48.9 °F - 28.9 °F 46% 29.90 in 10.0 mi NW 19.6 mph 32.2 mph N/A   Partly Cloudy
1:53 PM 48.9 °F - 25.0 °F 39% 29.91 in 10.0 mi NW 19.6 mph 24.2 mph N/A   Clear
2:53 PM 51.1 °F - 24.1 °F 35% 29.91 in 10.0 mi NW 15.0 mph 26.5 mph N/A   Clear
3:53 PM 52.0 °F - 24.1 °F 34% 29.90 in 10.0 mi WNW 16.1 mph 26.5 mph N/A   Partly Cloudy
4:53 PM 53.1 °F - 21.9 °F 30% 29.91 in 10.0 mi WNW 15.0 mph 23.0 mph N/A   Clear
5:53 PM 52.0 °F - 21.0 °F 30% 29.92 in 10.0 mi NW 13.8 mph 24.2 mph N/A   Partly Cloudy
6:53 PM 48.9 °F - 19.9 °F 32% 29.94 in 10.0 mi NNW 16.1 mph 23.0 mph N/A   Clear
7:53 PM 46.0 °F 41.0 °F 19.9 °F 35% 29.98 in 10.0 mi NNW 10.4 mph - N/A   Clear
8:53 PM 43.0 °F 37.7 °F 19.9 °F 40% 30.02 in 10.0 mi NNW 9.2 mph - N/A   Clear
9:53 PM 41.0 °F 36.4 °F 17.1 °F 38% 30.04 in 10.0 mi North 6.9 mph - N/A   Clear
10:53 PM 37.9 °F 32.7 °F 17.1 °F 43% 30.06 in 10.0 mi North 6.9 mph - N/A   Clear
11:53 PM 36.0 °F 31.1 °F 17.1 °F 46% 30.07 in 10.0 mi North 5.8 mph - N/A   Clear